#timestamp,LO_Frequency,Hit,StdDev 
1567886415.3,286047004.2,P
1567886435.1,286047002.5,N
1567886455.9,286046998.6,N
1567886475.7,286046999.1,N
1567886495.5,286046998.7,N
1567886515.4,286046998.6,N
1567886535.2,286046999.4,N
1567886555.1,286046996.9,N
1567886556.0,286046996.9,N
1567886575.8,286046997.7,N
1567886595.6,286046995.9,N
1567886615.5,286046995.7,N
1567886635.3,286046993.4,N
1567886655.1,286046995.2,N
1567886675.9,286046995.1,N
1567886695.7,286046994.9,N
1567886715.6,286046999.5,N
1567886735.4,286046999.0,N
1567886755.2,286046999.1,N
1567886775.1,286046998.9,N
1567886776.0,286046998.9,N
1567886795.8,286046998.7,N
1567886815.6,286046999.3,N
1567886835.5,286047000.9,N
1567886855.3,286047000.6,N
1567886875.2,286047002.8,N
1567886895.9,286046999.8,N
1567886915.7,286047000.6,N
1567886935.6,286046998.5,N
1567886955.4,286046999.1,N
1567886975.2,286047000.0,N
1567886995.1,286047001.7,N
1567886996.0,286047001.7,N
1567887015.8,286047002.3,N
1567887035.7,286046999.7,N
1567887055.5,286047000.3,N
1567887075.3,286046999.9,N
1567887095.2,286046999.3,N
1567887115.0,286047000.1,N
1567887115.9,286047000.1,N
1567887135.7,286047000.9,N
1567887155.6,286047000.0,N
1567887175.4,286047000.3,N
1567887195.3,286047002.5,N
1567887215.1,286046999.3,N
1567887216.0,286046999.3,N
1567887235.8,286046998.8,N
1567887255.7,286047000.6,N
1567887275.5,286046999.8,N
1567887295.4,286047001.9,N
1567887315.2,286047004.3,Y
1567887335.0,286047002.0,P
1567887335.9,286047002.0,N
1567887355.8,286046999.9,N
1567887375.6,286047001.1,N
1567887395.5,286046998.6,N
1567887415.3,286047000.6,N
1567887435.1,286047000.3,N
1567887455.9,286047000.4,N
1567887475.7,286047001.9,N
1567887495.5,286047001.8,N
1567887515.4,286047002.5,N
1567887535.2,286047004.0,Y
1567887555.1,286047011.9,P
1567887556.0,286047000.4,N
1567887575.8,286046998.1,N
1567887595.6,286046998.3,N
1567887615.5,286047000.8,N
1567887635.3,286046998.5,N
1567887655.2,286046997.1,N
1567887675.9,286047000.7,N
1567887695.7,286046998.9,N
1567887715.6,286046999.2,N
1567887735.4,286046998.6,N
1567887755.2,286046997.3,N
1567887775.1,286046996.8,N
1567887776.0,286046996.8,N
1567887795.8,286046997.4,N
1567887815.7,286046996.7,N
1567887835.5,286046998.9,N
1567887855.3,286046997.0,N
1567887875.2,286046997.8,N
1567887895.0,286046997.5,N
1567887895.9,286046997.5,N
1567887915.7,286046997.2,N
1567887935.6,286046996.6,N
1567887955.4,286047000.2,N
1567887975.3,286046999.9,N
1567887995.1,286046999.3,N
1567887996.0,286046999.3,N
1567888015.8,286046998.5,N
1567888035.7,286046996.7,N
1567888055.5,286046998.0,N
1567888075.3,286046996.0,N
1567888095.2,286046995.7,Y
1567888115.0,286046997.8,P
1567888115.9,286046997.8,P
1567888135.8,286047001.1,P
1567888155.6,286046999.8,N
1567888175.4,286047004.3,Y
1567888195.3,286047003.5,P
1567888215.1,286047004.4,N
1567888235.9,286047001.5,N
1567888255.7,286047000.1,N
1567888275.5,286046999.8,N
1567888295.4,286047000.7,N
1567888315.2,286046998.5,N
1567888335.0,286047000.7,N
1567888335.9,286047000.7,N
1567888355.8,286046999.7,N
1567888375.6,286047002.4,N
1567888395.5,286047002.8,N
1567888415.3,286047002.1,N
1567888435.1,286047002.5,N
1567888455.9,286047004.4,N
1567888475.7,286047004.7,N
1567888495.5,286047003.5,N
1567888515.4,286047001.4,N
1567888535.2,286047003.1,N
1567888555.1,286047003.4,N
1567888556.0,286047003.4,N
1567888575.8,286047001.9,N
1567888595.6,286047001.5,N
1567888615.5,286047001.7,N
1567888635.3,286047001.9,N
1567888655.1,286047002.2,N
1567888675.9,286047002.9,N
1567888695.7,286047005.9,Y
1567888715.6,286047002.0,P
1567888735.4,286046999.7,P
1567888755.2,286047000.2,N
1567888775.1,286047001.9,N
1567888776.0,286047001.9,N
1567888795.8,286047003.8,Y
1567888815.7,286047002.8,P
1567888835.5,286047004.0,P
1567888855.3,286046999.7,N
1567888875.2,286047000.0,N
1567888895.9,286047000.4,N
1567888915.7,286046999.3,N
1567888935.6,286047000.2,N
1567888955.4,286047000.1,N
1567888975.3,286047000.4,N
1567888995.1,286046999.7,N
1567888996.0,286046999.7,N
1567889015.8,286047001.1,N
1567889035.7,286047001.5,N
1567889055.5,286047002.2,N
1567889075.3,286046999.8,N
1567889095.2,286046998.6,N
1567889115.0,286047000.2,N
1567889115.9,286047000.2,N
1567889135.8,286047000.8,N
1567889155.6,286047000.9,N
1567889175.4,286046998.7,N
1567889195.3,286047000.7,N
1567889215.1,286046998.5,N
1567889235.8,286046998.2,N
1567889255.7,286047000.4,N
1567889275.5,286047000.0,N
1567889295.4,286046999.0,N
1567889315.2,286046996.9,N
1567889335.0,286046998.9,N
1567889335.9,286046998.9,N
1567889355.8,286047002.8,N
1567889375.6,286047002.8,N
1567889395.4,286046998.4,N
1567889415.3,286047001.2,N
1567889435.1,286046998.4,N
1567889455.9,286047002.8,N
1567889475.7,286046998.1,N
1567889495.5,286046998.3,N
1567889515.4,286046998.8,N
1567889535.2,286046997.1,N
1567889555.0,286046996.9,N
1567889555.9,286046996.9,N
1567889575.8,286047000.8,N
1567889595.6,286046996.6,N
1567889615.5,286046998.9,N
1567889635.3,286046999.4,N
1567889655.1,286047000.3,N
1567889675.9,286047000.5,N
1567889695.7,286047002.6,N
1567889715.6,286047000.6,N
1567889735.4,286047000.5,N
1567889755.2,286047000.0,N
1567889775.1,286047002.4,N
1567889776.0,286047002.4,N
1567889795.8,286047004.0,N
1567889815.6,286047001.4,N
1567889835.5,286047004.3,N
1567889855.3,286047001.4,N
1567889875.1,286047002.3,N
1567889895.9,286047004.0,N
1567889915.7,286047001.6,N
1567889935.6,286047002.2,N
1567889955.4,286047001.8,N
1567889975.2,286047002.8,N
1567889995.1,286047001.8,N
1567889996.0,286047001.8,N
